Location: B?ogocice
(50.2413°N, 20.2361°E)
Time: 22:50:37
(UTC+00:00)

USA 267 - Pass Details

Date: 15 June 2024
Orbit: 1100 x 1107 km, 123.0° (Epoch: 21 May)

Event Time Altitude Azimuth Distance (km) Brightness Sun altitude
Rises 00:59:48 0° 58° (ENE) 3,923 7.5 -10.2°
Reaches altitude 10° 01:02:31 10° 66° (ENE) 2,962 6.5 -9.9°
Maximum altitude 01:08:30 38° 133° (SE) 1,628 4.1 -9.4°
Drops below altitude 10° 01:14:28 10° 199° (SSW) 2,949 4.9 -8.9°
Enters shadow 01:14:40 - 200° (SSW) 3,014 4.9 -8.8°
